STARLINK-36318, 68048

Orbit data source: Space-Track

STARLINK-36318, 68048 is a payload satellite owned by SpaceX/Seattle (US) in LEO that was launched on Mon, 02 Mar 2026 UTC via an FALCON 9 launch vehicle from the Air Force Eastern Test Range (AFETR). Payload-class satellites include a variety of spacecraft equipped with specific instruments for various scientific and technological missions. These include communications satellites like Starlink; space stations such as the ISS; scientific satellites like the Hubble; Earth observation satellites from companies like Planet Labs, Umbra, and HawkEye 360; GPS; miniature CubeSats for education and research; and military/defense satellites.

Loading next visibility...
Identifier
68048, 2026-041J
Orbit
LEO
Country
Flag of USUS
Related business
Manufacturer
SpaceX/Seattle
Mission
Operational Commercial Communications
Bus & Motor
STARLINK V2MO, Unknown motor
Mass
575 kg wet, ~530 kg dry
Launch date (UTC)
2026-03-02 (2 months ago)
Launch vehicle
FALCON 9
Launch site
Air Force Eastern Test Range (AFETR)
Object type
Payload
Rocket body
Debris
Shape & HBR
Box + 2 Pan, 17.7 m
Radar Cross Section
36.964 m²

Expand to show TLE details & history
Last TLE update: 6 hours ago

TLE from 6 hours ago
0 STARLINK-36318
1 68048U 26041J   26119.16668980  .00025076  00000-0  75117-3 0  9996
2 68048  53.1601 174.7803 0000732  88.1928 337.5223 15.34385196  6042
Epoch: 2026-04-29T04:00Z
TLE epoch observation values (Epoch: 2026-04-29T04:00:01.998Z)
Latitude
46.98762°
Longitude
-49.36242°
Altitude
467.416 km
Speed
7.639 km/s
True Right ascension
15h 11m 06s
True Declination
46° 48' 31"
Sunlit
Object was in full shadow at epoch
Visualization orbit readout
Latitude
Unknown
Longitude
Unknown
Altitude
Unknown
Speed
Unknown
Apparent Right ascension
Unknown
Apparent Declination
Unknown
Sunlit
N/A
Visualization observer readout
Local Sidereal Time
17:07:45
Azimuth
Unknown
Elevation
Unknown
Doppler factor
Unknown
Orbital elements
Apogee altitude
463.505 km
Perigee altitude
462.503 km
Semi-major axis
6,841.141 km
Eccentricity
0.00007
Inclination
53.1601°
RAAN
174.7803°
Arg. of periapsis
88.1928°
True anomaly
337.51909°
Mean anomaly
337.5223°
Eccentric anomaly
337.5207°
Mean motion
3.83575 °/min
Orbital period
93.85 mins
BSTAR
0.00075117
Loading maneuver chart data...
Computing Atmospheric mass density...
Loading historical data...
Loading historical data...
Loading historical data...
Loading historical data...
Loading historical data...
Loading historical data...
Loading historical data...

Documentation

Showing up to 5 results
|